Regional Weather Roundup
Issued by NWS

Home | Current Version | Previous Version | Graphics & Text | Print | Product List | Glossary On
Versions: 1 2 3 4 5 6 7 8 9 10 11 12 13 14 15 16 17 18 19 20 21 22 23 24 25 26 27 28 29 30 31 32 33 34 35 36 37 38 39 40 41 42 43 44 45 46 47 48 49 50
000
ASUS45 KSLC 230610
RWRUT

UTAH REGIONAL WEATHER ROUNDUP
NATIONAL WEATHER SERVICE SALT LAKE CITY UT
1200 AM MDT TUE SEP 23 2014

UTZ001>011-023>025-230700-

NORTHERN UTAH

CITY           SKY/WX    TMP DP  RH WIND       PRES   REMARKS
HILL AFB       CLOUDY    64  49  58 E9        30.14S
LOGAN          CLOUDY    63  52  67 S3        30.13S
OGDEN          CLOUDY    65  52  62 S5        30.12S
PROVO AIRPORT  CLOUDY    59  54  82 CALM      30.15S
SALT LAKE CITY MOCLDY    67  52  58 S6        30.10S
VERNAL         MOCLDY    60  51  72 W3        30.18R
WENDOVER       CLEAR     63  52  67 CALM      30.11S
HEBER CITY     CLOUDY    55  52  88 CALM      30.21R
WEST JORDAN    CLOUDY    64  52  63 SW6       30.13S

$$

UTZ012>022-026-027-230700-

SOUTHERN UTAH

CITY           SKY/WX    TMP DP  RH WIND       PRES   REMARKS
BRYCE CANYON   CLEAR     44  38  79 W9        30.36R
CEDAR CITY     CLEAR     58  38  47 SE5       30.21S
MILFORD        CLEAR     60  46  59 SW7       30.16S
MOAB/CYNLANDS  MOCLDY    67  54  63 CALM      30.12R
PRICE          PTCLDY    59  53  80 N7        30.22S
ST GEORGE      PTCLDY    73  45  35 NW3       30.06S
KANAB            N/A     59  45  58 N5        30.22R

$$

REGIONAL REPORTS     COLORADO/ARIZONA

CITY           SKY/WX    TMP DP  RH WIND       PRES   REMARKS
CRAIG, CO      CLOUDY    55  48  77 CALM      30.24S
GRAND JUNCTION MOCLDY    63  51  65 E7        30.16R
RIFLE          CLOUDY    59  51  75 E6        30.22S
MONTROSE       MOCLDY    58  52  80 SE8       30.25S
CORTEZ         CLEAR     53  48  83 E3        30.26R
PAGE, AZ       CLEAR     71  43  36 CALM      30.12R
GRAND CANYON   CLEAR     47  40  76 CALM      30.31R
KINGMAN        CLEAR     68  35  29 S8        30.09R
FLAGSTAFF      CLEAR     50  45  83 CALM      30.35R

$$

REGIONAL REPORTS    NEVADA/IDAHO/WYOMING

CITY           SKY/WX    TMP DP  RH WIND       PRES   REMARKS
LAS VEGAS, NV  CLEAR     82  39  21 SW9       29.94R
ELY            CLEAR     51  45  79 S9        30.24S
ELKO           CLEAR     58  43  57 E3        30.13F
POCATELLO, ID  CLEAR     56  52  86 E3        30.13R
BURLEY         CLEAR     55  51  86 CALM      30.10R
EVANSTON, WY   CLOUDY    55  44  66 S5        30.27S
ROCK SPRINGS   PTCLDY    51  44  77 S3        30.25S

$$



USA.gov is the U.S. government's official web portal to all federal, state and local government web resources and services.